locationName,lineName,date,time,countIn,countOut
�n����ʂ�,3_1_3,2022/7/1,0:00,7,0
�n����ʂ�,3_1_3,2022/7/1,1:00,3,0
�n����ʂ�,3_1_3,2022/7/1,2:00,3,0
�n����ʂ�,3_1_3,2022/7/1,3:00,1,2
�n����ʂ�,3_1_3,2022/7/1,4:00,8,2
�n����ʂ�,3_1_3,2022/7/1,5:00,25,41
�n����ʂ�,3_1_3,2022/7/1,6:00,47,64
�n����ʂ�,3_1_3,2022/7/1,7:00,84,458
�n����ʂ�,3_1_3,2022/7/1,8:00,101,339
�n����ʂ�,3_1_3,2022/7/1,9:00,163,138
�n����ʂ�,3_1_3,2022/7/1,10:00,135,151
�n����ʂ�,3_1_3,2022/7/1,11:00,155,159
�n����ʂ�,3_1_3,2022/7/1,12:00,275,138
�n����ʂ�,3_1_3,2022/7/1,13:00,330,119
�n����ʂ�,3_1_3,2022/7/1,14:00,105,100
�n����ʂ�,3_1_3,2022/7/1,15:00,105,91
�n����ʂ�,3_1_3,2022/7/1,16:00,182,100
�n����ʂ�,3_1_3,2022/7/1,17:00,240,108
�n����ʂ�,3_1_3,2022/7/1,18:00,165,146
�n����ʂ�,3_1_3,2022/7/1,19:00,81,104
�n����ʂ�,3_1_3,2022/7/1,20:00,54,76
�n����ʂ�,3_1_3,2022/7/1,21:00,62,53
�n����ʂ�,3_1_3,2022/7/1,22:00,63,34
�n����ʂ�,3_1_3,2022/7/1,23:00,25,10
�n����ʂ�,3_1_3,2022/7/2,0:00,9,7
�n����ʂ�,3_1_3,2022/7/2,1:00,8,6
�n����ʂ�,3_1_3,2022/7/2,2:00,19,6
�n����ʂ�,3_1_3,2022/7/2,3:00,5,14
�n����ʂ�,3_1_3,2022/7/2,4:00,9,15
�n����ʂ�,3_1_3,2022/7/2,5:00,24,34
�n����ʂ�,3_1_3,2022/7/2,6:00,49,70
�n����ʂ�,3_1_3,2022/7/2,7:00,56,312
�n����ʂ�,3_1_3,2022/7/2,8:00,82,198
�n����ʂ�,3_1_3,2022/7/2,9:00,146,140
�n����ʂ�,3_1_3,2022/7/2,10:00,169,229
�n����ʂ�,3_1_3,2022/7/2,11:00,186,199
�n����ʂ�,3_1_3,2022/7/2,12:00,272,210
�n����ʂ�,3_1_3,2022/7/2,13:00,305,251
�n����ʂ�,3_1_3,2022/7/2,14:00,396,231
�n����ʂ�,3_1_3,2022/7/2,15:00,341,211
�n����ʂ�,3_1_3,2022/7/2,16:00,271,229
�n����ʂ�,3_1_3,2022/7/2,17:00,234,182
�n����ʂ�,3_1_3,2022/7/2,18:00,153,204
�n����ʂ�,3_1_3,2022/7/2,19:00,165,146
�n����ʂ�,3_1_3,2022/7/2,20:00,134,87
�n����ʂ�,3_1_3,2022/7/2,21:00,71,82
�n����ʂ�,3_1_3,2022/7/2,22:00,28,2
�n����ʂ�,3_1_3,2022/7/2,23:00,22,0
�n����ʂ�,3_1_3,2022/7/3,0:00,6,0
�n����ʂ�,3_1_3,2022/7/3,1:00,3,1
�n����ʂ�,3_1_3,2022/7/3,2:00,6,1
�n����ʂ�,3_1_3,2022/7/3,3:00,1,2
�n����ʂ�,3_1_3,2022/7/3,4:00,4,1
�n����ʂ�,3_1_3,2022/7/3,5:00,28,22
�n����ʂ�,3_1_3,2022/7/3,6:00,29,30
�n����ʂ�,3_1_3,2022/7/3,7:00,42,80
�n����ʂ�,3_1_3,2022/7/3,8:00,84,101
�n����ʂ�,3_1_3,2022/7/3,9:00,100,145
�n����ʂ�,3_1_3,2022/7/3,10:00,200,244
�n����ʂ�,3_1_3,2022/7/3,11:00,238,223
�n����ʂ�,3_1_3,2022/7/3,12:00,404,352
�n����ʂ�,3_1_3,2022/7/3,13:00,396,375
�n����ʂ�,3_1_3,2022/7/3,14:00,365,323
�n����ʂ�,3_1_3,2022/7/3,15:00,278,220
�n����ʂ�,3_1_3,2022/7/3,16:00,218,196
�n����ʂ�,3_1_3,2022/7/3,17:00,164,148
�n����ʂ�,3_1_3,2022/7/3,18:00,113,89
�n����ʂ�,3_1_3,2022/7/3,19:00,66,47
�n����ʂ�,3_1_3,2022/7/3,20:00,47,30
�n����ʂ�,3_1_3,2022/7/3,21:00,21,28
�n����ʂ�,3_1_3,2022/7/3,22:00,19,11
�n����ʂ�,3_1_3,2022/7/3,23:00,1,0
�n����ʂ�,3_1_3,2022/7/4,0:00,1,0
�n����ʂ�,3_1_3,2022/7/4,1:00,0,0
�n����ʂ�,3_1_3,2022/7/4,2:00,2,1
�n����ʂ�,3_1_3,2022/7/4,3:00,5,4
�n����ʂ�,3_1_3,2022/7/4,4:00,7,5
�n����ʂ�,3_1_3,2022/7/4,5:00,31,22
�n����ʂ�,3_1_3,2022/7/4,6:00,39,49
�n����ʂ�,3_1_3,2022/7/4,7:00,68,181
�n����ʂ�,3_1_3,2022/7/4,8:00,81,213
�n����ʂ�,3_1_3,2022/7/4,9:00,104,82
�n����ʂ�,3_1_3,2022/7/4,10:00,114,86
�n����ʂ�,3_1_3,2022/7/4,11:00,124,136
�n����ʂ�,3_1_3,2022/7/4,12:00,183,133
�n����ʂ�,3_1_3,2022/7/4,13:00,165,143
�n����ʂ�,3_1_3,2022/7/4,14:00,130,108
�n����ʂ�,3_1_3,2022/7/4,15:00,143,89
�n����ʂ�,3_1_3,2022/7/4,16:00,171,108
�n����ʂ�,3_1_3,2022/7/4,17:00,177,93
�n����ʂ�,3_1_3,2022/7/4,18:00,187,75
�n����ʂ�,3_1_3,2022/7/4,19:00,77,62
�n����ʂ�,3_1_3,2022/7/4,20:00,43,38
�n����ʂ�,3_1_3,2022/7/4,21:00,41,42
�n����ʂ�,3_1_3,2022/7/4,22:00,4,1
�n����ʂ�,3_1_3,2022/7/4,23:00,4,0
�n����ʂ�,3_1_3,2022/7/5,0:00,5,0
�n����ʂ�,3_1_3,2022/7/5,1:00,5,0
�n����ʂ�,3_1_3,2022/7/5,2:00,1,1
�n����ʂ�,3_1_3,2022/7/5,3:00,4,2
�n����ʂ�,3_1_3,2022/7/5,4:00,2,5
�n����ʂ�,3_1_3,2022/7/5,5:00,15,29
�n����ʂ�,3_1_3,2022/7/5,6:00,36,53
�n����ʂ�,3_1_3,2022/7/5,7:00,55,272
�n����ʂ�,3_1_3,2022/7/5,8:00,99,284
�n����ʂ�,3_1_3,2022/7/5,9:00,149,125
�n����ʂ�,3_1_3,2022/7/5,10:00,160,146
�n����ʂ�,3_1_3,2022/7/5,11:00,143,109
�n����ʂ�,3_1_3,2022/7/5,12:00,147,161
�n����ʂ�,3_1_3,2022/7/5,13:00,146,168
�n����ʂ�,3_1_3,2022/7/5,14:00,164,114
�n����ʂ�,3_1_3,2022/7/5,15:00,148,85
�n����ʂ�,3_1_3,2022/7/5,16:00,232,124
�n����ʂ�,3_1_3,2022/7/5,17:00,234,90
�n����ʂ�,3_1_3,2022/7/5,18:00,311,92
�n����ʂ�,3_1_3,2022/7/5,19:00,81,89
�n����ʂ�,3_1_3,2022/7/5,20:00,56,49
�n����ʂ�,3_1_3,2022/7/5,21:00,58,47
�n����ʂ�,3_1_3,2022/7/5,22:00,19,6
�n����ʂ�,3_1_3,2022/7/5,23:00,7,1
�n����ʂ�,3_1_3,2022/7/6,0:00,9,0
�n����ʂ�,3_1_3,2022/7/6,1:00,4,1
�n����ʂ�,3_1_3,2022/7/6,2:00,1,1
�n����ʂ�,3_1_3,2022/7/6,3:00,2,1
�n����ʂ�,3_1_3,2022/7/6,4:00,5,1
�n����ʂ�,3_1_3,2022/7/6,5:00,21,40
�n����ʂ�,3_1_3,2022/7/6,6:00,43,49
�n����ʂ�,3_1_3,2022/7/6,7:00,92,338
�n����ʂ�,3_1_3,2022/7/6,8:00,115,304
�n����ʂ�,3_1_3,2022/7/6,9:00,130,106
�n����ʂ�,3_1_3,2022/7/6,10:00,182,161
�n����ʂ�,3_1_3,2022/7/6,11:00,101,98
�n����ʂ�,3_1_3,2022/7/6,12:00,131,160
�n����ʂ�,3_1_3,2022/7/6,13:00,106,118
�n����ʂ�,3_1_3,2022/7/6,14:00,114,96
�n����ʂ�,3_1_3,2022/7/6,15:00,188,93
�n����ʂ�,3_1_3,2022/7/6,16:00,230,82
�n����ʂ�,3_1_3,2022/7/6,17:00,162,122
�n����ʂ�,3_1_3,2022/7/6,18:00,90,72
�n����ʂ�,3_1_3,2022/7/6,19:00,40,50
�n����ʂ�,3_1_3,2022/7/6,20:00,34,33
�n����ʂ�,3_1_3,2022/7/6,21:00,45,19
�n����ʂ�,3_1_3,2022/7/6,22:00,2,3
�n����ʂ�,3_1_3,2022/7/6,23:00,2,2
�n����ʂ�,3_1_3,2022/7/7,0:00,3,0
�n����ʂ�,3_1_3,2022/7/7,1:00,2,0
�n����ʂ�,3_1_3,2022/7/7,2:00,0,0
�n����ʂ�,3_1_3,2022/7/7,3:00,1,1
�n����ʂ�,3_1_3,2022/7/7,4:00,2,3
�n����ʂ�,3_1_3,2022/7/7,5:00,25,30
�n����ʂ�,3_1_3,2022/7/7,6:00,34,44
�n����ʂ�,3_1_3,2022/7/7,7:00,70,234
�n����ʂ�,3_1_3,2022/7/7,8:00,72,243
�n����ʂ�,3_1_3,2022/7/7,9:00,129,110
�n����ʂ�,3_1_3,2022/7/7,10:00,107,110
�n����ʂ�,3_1_3,2022/7/7,11:00,110,94
�n����ʂ�,3_1_3,2022/7/7,12:00,159,119
�n����ʂ�,3_1_3,2022/7/7,13:00,107,139
�n����ʂ�,3_1_3,2022/7/7,14:00,146,101
�n����ʂ�,3_1_3,2022/7/7,15:00,96,101
�n����ʂ�,3_1_3,2022/7/7,16:00,168,88
�n����ʂ�,3_1_3,2022/7/7,17:00,240,100
�n����ʂ�,3_1_3,2022/7/7,18:00,274,76
�n����ʂ�,3_1_3,2022/7/7,19:00,75,46
�n����ʂ�,3_1_3,2022/7/7,20:00,48,42
�n����ʂ�,3_1_3,2022/7/7,21:00,41,27
�n����ʂ�,3_1_3,2022/7/7,22:00,7,2
�n����ʂ�,3_1_3,2022/7/7,23:00,2,1
�n����ʂ�,3_1_3,2022/7/8,0:00,2,0
�n����ʂ�,3_1_3,2022/7/8,1:00,0,0
�n����ʂ�,3_1_3,2022/7/8,2:00,1,1
�n����ʂ�,3_1_3,2022/7/8,3:00,2,1
�n����ʂ�,3_1_3,2022/7/8,4:00,2,4
�n����ʂ�,3_1_3,2022/7/8,5:00,23,21
�n����ʂ�,3_1_3,2022/7/8,6:00,33,38
�n����ʂ�,3_1_3,2022/7/8,7:00,38,142
�n����ʂ�,3_1_3,2022/7/8,8:00,71,152
�n����ʂ�,3_1_3,2022/7/8,9:00,97,93
�n����ʂ�,3_1_3,2022/7/8,10:00,140,132
�n����ʂ�,3_1_3,2022/7/8,11:00,190,109
�n����ʂ�,3_1_3,2022/7/8,12:00,123,120
�n����ʂ�,3_1_3,2022/7/8,13:00,156,118
�n����ʂ�,3_1_3,2022/7/8,14:00,112,97
�n����ʂ�,3_1_3,2022/7/8,15:00,146,81
�n����ʂ�,3_1_3,2022/7/8,16:00,89,87
�n����ʂ�,3_1_3,2022/7/8,17:00,135,77
�n����ʂ�,3_1_3,2022/7/8,18:00,167,93
�n����ʂ�,3_1_3,2022/7/8,19:00,41,64
�n����ʂ�,3_1_3,2022/7/8,20:00,43,32
�n����ʂ�,3_1_3,2022/7/8,21:00,29,14
�n����ʂ�,3_1_3,2022/7/8,22:00,15,1
�n����ʂ�,3_1_3,2022/7/8,23:00,5,2
�n����ʂ�,3_1_3,2022/7/9,0:00,3,1
�n����ʂ�,3_1_3,2022/7/9,1:00,7,2
�n����ʂ�,3_1_3,2022/7/9,2:00,2,0
�n����ʂ�,3_1_3,2022/7/9,3:00,0,2
�n����ʂ�,3_1_3,2022/7/9,4:00,3,1
�n����ʂ�,3_1_3,2022/7/9,5:00,13,17
�n����ʂ�,3_1_3,2022/7/9,6:00,20,29
�n����ʂ�,3_1_3,2022/7/9,7:00,42,64
�n����ʂ�,3_1_3,2022/7/9,8:00,44,83
�n����ʂ�,3_1_3,2022/7/9,9:00,95,85
�n����ʂ�,3_1_3,2022/7/9,10:00,118,164
�n����ʂ�,3_1_3,2022/7/9,11:00,169,176
�n����ʂ�,3_1_3,2022/7/9,12:00,259,236
�n����ʂ�,3_1_3,2022/7/9,13:00,329,271
�n����ʂ�,3_1_3,2022/7/9,14:00,255,258
�n����ʂ�,3_1_3,2022/7/9,15:00,248,188
�n����ʂ�,3_1_3,2022/7/9,16:00,235,202
�n����ʂ�,3_1_3,2022/7/9,17:00,199,176
�n����ʂ�,3_1_3,2022/7/9,18:00,129,125
�n����ʂ�,3_1_3,2022/7/9,19:00,125,167
�n����ʂ�,3_1_3,2022/7/9,20:00,114,96
�n����ʂ�,3_1_3,2022/7/9,21:00,107,53
�n����ʂ�,3_1_3,2022/7/9,22:00,31,13
�n����ʂ�,3_1_3,2022/7/9,23:00,15,2
�n����ʂ�,3_1_3,2022/7/10,0:00,1,5
�n����ʂ�,3_1_3,2022/7/10,1:00,1,0
�n����ʂ�,3_1_3,2022/7/10,2:00,4,2
�n����ʂ�,3_1_3,2022/7/10,3:00,0,3
�n����ʂ�,3_1_3,2022/7/10,4:00,2,2
�n����ʂ�,3_1_3,2022/7/10,5:00,19,19
�n����ʂ�,3_1_3,2022/7/10,6:00,34,28
�n����ʂ�,3_1_3,2022/7/10,7:00,47,61
�n����ʂ�,3_1_3,2022/7/10,8:00,69,67
�n����ʂ�,3_1_3,2022/7/10,9:00,97,66
�n����ʂ�,3_1_3,2022/7/10,10:00,155,165
�n����ʂ�,3_1_3,2022/7/10,11:00,184,207
�n����ʂ�,3_1_3,2022/7/10,12:00,317,283
�n����ʂ�,3_1_3,2022/7/10,13:00,280,240
�n����ʂ�,3_1_3,2022/7/10,14:00,330,281
�n����ʂ�,3_1_3,2022/7/10,15:00,297,221
�n����ʂ�,3_1_3,2022/7/10,16:00,211,166
�n����ʂ�,3_1_3,2022/7/10,17:00,193,110
�n����ʂ�,3_1_3,2022/7/10,18:00,91,63
�n����ʂ�,3_1_3,2022/7/10,19:00,48,68
�n����ʂ�,3_1_3,2022/7/10,20:00,39,32
�n����ʂ�,3_1_3,2022/7/10,21:00,52,31
�n����ʂ�,3_1_3,2022/7/10,22:00,4,3
�n����ʂ�,3_1_3,2022/7/10,23:00,48,21
�n����ʂ�,3_1_3,2022/7/11,0:00,4,4
�n����ʂ�,3_1_3,2022/7/11,1:00,3,0
�n����ʂ�,3_1_3,2022/7/11,2:00,1,0
�n����ʂ�,3_1_3,2022/7/11,3:00,0,3
�n����ʂ�,3_1_3,2022/7/11,4:00,2,4
�n����ʂ�,3_1_3,2022/7/11,5:00,13,22
�n����ʂ�,3_1_3,2022/7/11,6:00,32,51
�n����ʂ�,3_1_3,2022/7/11,7:00,64,327
�n����ʂ�,3_1_3,2022/7/11,8:00,88,272
�n����ʂ�,3_1_3,2022/7/11,9:00,94,106
�n����ʂ�,3_1_3,2022/7/11,10:00,150,109
�n����ʂ�,3_1_3,2022/7/11,11:00,166,127
�n����ʂ�,3_1_3,2022/7/11,12:00,150,163
�n����ʂ�,3_1_3,2022/7/11,13:00,154,111
�n����ʂ�,3_1_3,2022/7/11,14:00,191,143
�n����ʂ�,3_1_3,2022/7/11,15:00,188,97
�n����ʂ�,3_1_3,2022/7/11,16:00,187,86
�n����ʂ�,3_1_3,2022/7/11,17:00,163,62
�n����ʂ�,3_1_3,2022/7/11,18:00,181,55
�n����ʂ�,3_1_3,2022/7/11,19:00,50,76
�n����ʂ�,3_1_3,2022/7/11,20:00,46,42
�n����ʂ�,3_1_3,2022/7/11,21:00,34,26
�n����ʂ�,3_1_3,2022/7/11,22:00,10,5
�n����ʂ�,3_1_3,2022/7/11,23:00,3,2
�n����ʂ�,3_1_3,2022/7/12,0:00,1,3
�n����ʂ�,3_1_3,2022/7/12,1:00,2,0
�n����ʂ�,3_1_3,2022/7/12,2:00,0,1
�n����ʂ�,3_1_3,2022/7/12,3:00,0,3
�n����ʂ�,3_1_3,2022/7/12,4:00,0,1
�n����ʂ�,3_1_3,2022/7/12,5:00,15,24
�n����ʂ�,3_1_3,2022/7/12,6:00,27,43
�n����ʂ�,3_1_3,2022/7/12,7:00,52,230
�n����ʂ�,3_1_3,2022/7/12,8:00,68,255
�n����ʂ�,3_1_3,2022/7/12,9:00,82,88
�n����ʂ�,3_1_3,2022/7/12,10:00,153,121
�n����ʂ�,3_1_3,2022/7/12,11:00,146,122
�n����ʂ�,3_1_3,2022/7/12,12:00,91,138
�n����ʂ�,3_1_3,2022/7/12,13:00,129,119
�n����ʂ�,3_1_3,2022/7/12,14:00,141,92
�n����ʂ�,3_1_3,2022/7/12,15:00,113,115
�n����ʂ�,3_1_3,2022/7/12,16:00,216,88
�n����ʂ�,3_1_3,2022/7/12,17:00,229,95
�n����ʂ�,3_1_3,2022/7/12,18:00,302,85
�n����ʂ�,3_1_3,2022/7/12,19:00,94,86
�n����ʂ�,3_1_3,2022/7/12,20:00,73,50
�n����ʂ�,3_1_3,2022/7/12,21:00,105,48
�n����ʂ�,3_1_3,2022/7/12,22:00,12,2
�n����ʂ�,3_1_3,2022/7/12,23:00,2,1
�n����ʂ�,3_1_3,2022/7/13,0:00,7,1
�n����ʂ�,3_1_3,2022/7/13,1:00,1,1
�n����ʂ�,3_1_3,2022/7/13,2:00,0,1
�n����ʂ�,3_1_3,2022/7/13,3:00,0,3
�n����ʂ�,3_1_3,2022/7/13,4:00,7,3
�n����ʂ�,3_1_3,2022/7/13,5:00,20,34
�n����ʂ�,3_1_3,2022/7/13,6:00,42,56
�n����ʂ�,3_1_3,2022/7/13,7:00,81,342
�n����ʂ�,3_1_3,2022/7/13,8:00,76,308
�n����ʂ�,3_1_3,2022/7/13,9:00,129,119
�n����ʂ�,3_1_3,2022/7/13,10:00,150,128
�n����ʂ�,3_1_3,2022/7/13,11:00,156,150
�n����ʂ�,3_1_3,2022/7/13,12:00,167,160
�n����ʂ�,3_1_3,2022/7/13,13:00,153,126
�n����ʂ�,3_1_3,2022/7/13,14:00,170,126
�n����ʂ�,3_1_3,2022/7/13,15:00,194,154
�n����ʂ�,3_1_3,2022/7/13,16:00,370,83
�n����ʂ�,3_1_3,2022/7/13,17:00,232,89
�n����ʂ�,3_1_3,2022/7/13,18:00,112,122
�n����ʂ�,3_1_3,2022/7/13,19:00,59,90
�n����ʂ�,3_1_3,2022/7/13,20:00,72,42
�n����ʂ�,3_1_3,2022/7/13,21:00,58,26
�n����ʂ�,3_1_3,2022/7/13,22:00,12,6
�n����ʂ�,3_1_3,2022/7/13,23:00,2,3
�n����ʂ�,3_1_3,2022/7/14,0:00,8,2
�n����ʂ�,3_1_3,2022/7/14,1:00,1,0
�n����ʂ�,3_1_3,2022/7/14,2:00,0,1
�n����ʂ�,3_1_3,2022/7/14,3:00,0,3
�n����ʂ�,3_1_3,2022/7/14,4:00,1,3
�n����ʂ�,3_1_3,2022/7/14,5:00,19,24
�n����ʂ�,3_1_3,2022/7/14,6:00,23,41
�n����ʂ�,3_1_3,2022/7/14,7:00,31,92
�n����ʂ�,3_1_3,2022/7/14,8:00,49,146
�n����ʂ�,3_1_3,2022/7/14,9:00,76,101
�n����ʂ�,3_1_3,2022/7/14,10:00,67,96
�n����ʂ�,3_1_3,2022/7/14,11:00,98,108
�n����ʂ�,3_1_3,2022/7/14,12:00,133,149
�n����ʂ�,3_1_3,2022/7/14,13:00,106,101
�n����ʂ�,3_1_3,2022/7/14,14:00,122,63
�n����ʂ�,3_1_3,2022/7/14,15:00,108,101
�n����ʂ�,3_1_3,2022/7/14,16:00,116,72
�n����ʂ�,3_1_3,2022/7/14,17:00,148,110
�n����ʂ�,3_1_3,2022/7/14,18:00,186,94
�n����ʂ�,3_1_3,2022/7/14,19:00,47,49
�n����ʂ�,3_1_3,2022/7/14,20:00,35,42
�n����ʂ�,3_1_3,2022/7/14,21:00,45,28
�n����ʂ�,3_1_3,2022/7/14,22:00,2,3
�n����ʂ�,3_1_3,2022/7/14,23:00,5,4
�n����ʂ�,3_1_3,2022/7/15,0:00,3,0
�n����ʂ�,3_1_3,2022/7/15,1:00,0,0
�n����ʂ�,3_1_3,2022/7/15,2:00,1,1
�n����ʂ�,3_1_3,2022/7/15,3:00,0,2
�n����ʂ�,3_1_3,2022/7/15,4:00,1,1
�n����ʂ�,3_1_3,2022/7/15,5:00,29,19
�n����ʂ�,3_1_3,2022/7/15,6:00,41,39
�n����ʂ�,3_1_3,2022/7/15,7:00,59,289
�n����ʂ�,3_1_3,2022/7/15,8:00,77,307
�n����ʂ�,3_1_3,2022/7/15,9:00,128,106
�n����ʂ�,3_1_3,2022/7/15,10:00,175,179
�n����ʂ�,3_1_3,2022/7/15,11:00,187,139
�n����ʂ�,3_1_3,2022/7/15,12:00,205,175
�n����ʂ�,3_1_3,2022/7/15,13:00,206,145
�n����ʂ�,3_1_3,2022/7/15,14:00,263,128
�n����ʂ�,3_1_3,2022/7/15,15:00,195,102
�n����ʂ�,3_1_3,2022/7/15,16:00,269,137
�n����ʂ�,3_1_3,2022/7/15,17:00,231,129
�n����ʂ�,3_1_3,2022/7/15,18:00,323,127
�n����ʂ�,3_1_3,2022/7/15,19:00,95,93
�n����ʂ�,3_1_3,2022/7/15,20:00,65,56
�n����ʂ�,3_1_3,2022/7/15,21:00,49,33
�n����ʂ�,3_1_3,2022/7/15,22:00,26,4
�n����ʂ�,3_1_3,2022/7/15,23:00,13,8
�n����ʂ�,3_1_3,2022/7/16,0:00,11,3
�n����ʂ�,3_1_3,2022/7/16,1:00,9,0
�n����ʂ�,3_1_3,2022/7/16,2:00,0,1
�n����ʂ�,3_1_3,2022/7/16,3:00,3,2
�n����ʂ�,3_1_3,2022/7/16,4:00,2,1
�n����ʂ�,3_1_3,2022/7/16,5:00,27,26
�n����ʂ�,3_1_3,2022/7/16,6:00,34,42
�n����ʂ�,3_1_3,2022/7/16,7:00,47,88
�n����ʂ�,3_1_3,2022/7/16,8:00,84,89
�n����ʂ�,3_1_3,2022/7/16,9:00,133,152
�n����ʂ�,3_1_3,2022/7/16,10:00,219,242
�n����ʂ�,3_1_3,2022/7/16,11:00,253,301
�n����ʂ�,3_1_3,2022/7/16,12:00,364,377
�n����ʂ�,3_1_3,2022/7/16,13:00,308,363
�n����ʂ�,3_1_3,2022/7/16,14:00,363,348
�n����ʂ�,3_1_3,2022/7/16,15:00,374,250
�n����ʂ�,3_1_3,2022/7/16,16:00,278,217
�n����ʂ�,3_1_3,2022/7/16,17:00,261,185
�n����ʂ�,3_1_3,2022/7/16,18:00,231,235
�n����ʂ�,3_1_3,2022/7/16,19:00,136,125
�n����ʂ�,3_1_3,2022/7/16,20:00,119,127
�n����ʂ�,3_1_3,2022/7/16,21:00,81,54
�n����ʂ�,3_1_3,2022/7/16,22:00,38,29
�n����ʂ�,3_1_3,2022/7/16,23:00,9,2
�n����ʂ�,3_1_3,2022/7/17,0:00,7,0
�n����ʂ�,3_1_3,2022/7/17,1:00,5,1
�n����ʂ�,3_1_3,2022/7/17,2:00,8,0
�n����ʂ�,3_1_3,2022/7/17,3:00,2,4
�n����ʂ�,3_1_3,2022/7/17,4:00,4,1
�n����ʂ�,3_1_3,2022/7/17,5:00,22,20
�n����ʂ�,3_1_3,2022/7/17,6:00,52,49
�n����ʂ�,3_1_3,2022/7/17,7:00,86,93
�n����ʂ�,3_1_3,2022/7/17,8:00,86,89
�n����ʂ�,3_1_3,2022/7/17,9:00,150,163
�n����ʂ�,3_1_3,2022/7/17,10:00,269,329
�n����ʂ�,3_1_3,2022/7/17,11:00,317,395
�n����ʂ�,3_1_3,2022/7/17,12:00,399,470
�n����ʂ�,3_1_3,2022/7/17,13:00,541,486
�n����ʂ�,3_1_3,2022/7/17,14:00,535,392
�n����ʂ�,3_1_3,2022/7/17,15:00,523,454
�n����ʂ�,3_1_3,2022/7/17,16:00,429,346
�n����ʂ�,3_1_3,2022/7/17,17:00,383,268
�n����ʂ�,3_1_3,2022/7/17,18:00,181,207
�n����ʂ�,3_1_3,2022/7/17,19:00,123,133
�n����ʂ�,3_1_3,2022/7/17,20:00,83,59
�n����ʂ�,3_1_3,2022/7/17,21:00,69,46
�n����ʂ�,3_1_3,2022/7/17,22:00,49,25
�n����ʂ�,3_1_3,2022/7/17,23:00,30,11
�n����ʂ�,3_1_3,2022/7/18,0:00,9,1
�n����ʂ�,3_1_3,2022/7/18,1:00,4,3
�n����ʂ�,3_1_3,2022/7/18,2:00,4,3
�n����ʂ�,3_1_3,2022/7/18,3:00,1,3
�n����ʂ�,3_1_3,2022/7/18,4:00,8,1
�n����ʂ�,3_1_3,2022/7/18,5:00,23,20
�n����ʂ�,3_1_3,2022/7/18,6:00,35,31
�n����ʂ�,3_1_3,2022/7/18,7:00,48,61
�n����ʂ�,3_1_3,2022/7/18,8:00,77,100
�n����ʂ�,3_1_3,2022/7/18,9:00,121,152
�n����ʂ�,3_1_3,2022/7/18,10:00,234,320
�n����ʂ�,3_1_3,2022/7/18,11:00,327,287
�n����ʂ�,3_1_3,2022/7/18,12:00,413,448
�n����ʂ�,3_1_3,2022/7/18,13:00,402,445
�n����ʂ�,3_1_3,2022/7/18,14:00,425,386
�n����ʂ�,3_1_3,2022/7/18,15:00,320,217
�n����ʂ�,3_1_3,2022/7/18,16:00,221,212
�n����ʂ�,3_1_3,2022/7/18,17:00,162,126
�n����ʂ�,3_1_3,2022/7/18,18:00,93,71
�n����ʂ�,3_1_3,2022/7/18,19:00,41,43
�n����ʂ�,3_1_3,2022/7/18,20:00,30,40
�n����ʂ�,3_1_3,2022/7/18,21:00,17,11
�n����ʂ�,3_1_3,2022/7/18,22:00,6,1
�n����ʂ�,3_1_3,2022/7/18,23:00,1,1
�n����ʂ�,3_1_3,2022/7/19,0:00,1,1
�n����ʂ�,3_1_3,2022/7/19,1:00,0,1
�n����ʂ�,3_1_3,2022/7/19,2:00,2,0
�n����ʂ�,3_1_3,2022/7/19,3:00,0,7
�n����ʂ�,3_1_3,2022/7/19,4:00,1,1
�n����ʂ�,3_1_3,2022/7/19,5:00,11,16
�n����ʂ�,3_1_3,2022/7/19,6:00,34,37
�n����ʂ�,3_1_3,2022/7/19,7:00,62,132
�n����ʂ�,3_1_3,2022/7/19,8:00,58,186
�n����ʂ�,3_1_3,2022/7/19,9:00,82,69
�n����ʂ�,3_1_3,2022/7/19,10:00,104,80
�n����ʂ�,3_1_3,2022/7/19,11:00,85,76
�n����ʂ�,3_1_3,2022/7/19,12:00,110,102
�n����ʂ�,3_1_3,2022/7/19,13:00,110,108
�n����ʂ�,3_1_3,2022/7/19,14:00,110,80
�n����ʂ�,3_1_3,2022/7/19,15:00,105,102
�n����ʂ�,3_1_3,2022/7/19,16:00,151,69
�n����ʂ�,3_1_3,2022/7/19,17:00,249,71
�n����ʂ�,3_1_3,2022/7/19,18:00,150,79
�n����ʂ�,3_1_3,2022/7/19,19:00,77,52
�n����ʂ�,3_1_3,2022/7/19,20:00,46,44
�n����ʂ�,3_1_3,2022/7/19,21:00,30,44
�n����ʂ�,3_1_3,2022/7/19,22:00,9,16
�n����ʂ�,3_1_3,2022/7/19,23:00,2,0
�n����ʂ�,3_1_3,2022/7/20,0:00,3,4
�n����ʂ�,3_1_3,2022/7/20,1:00,4,1
�n����ʂ�,3_1_3,2022/7/20,2:00,0,1
�n����ʂ�,3_1_3,2022/7/20,3:00,1,5
�n����ʂ�,3_1_3,2022/7/20,4:00,6,3
�n����ʂ�,3_1_3,2022/7/20,5:00,30,27
�n����ʂ�,3_1_3,2022/7/20,6:00,54,70
�n����ʂ�,3_1_3,2022/7/20,7:00,95,381
�n����ʂ�,3_1_3,2022/7/20,8:00,118,317
�n����ʂ�,3_1_3,2022/7/20,9:00,135,147
�n����ʂ�,3_1_3,2022/7/20,10:00,180,170
�n����ʂ�,3_1_3,2022/7/20,11:00,169,162
�n����ʂ�,3_1_3,2022/7/20,12:00,321,109
�n����ʂ�,3_1_3,2022/7/20,13:00,237,130
�n����ʂ�,3_1_3,2022/7/20,14:00,139,84
�n����ʂ�,3_1_3,2022/7/20,15:00,147,81
�n����ʂ�,3_1_3,2022/7/20,16:00,180,101
�n����ʂ�,3_1_3,2022/7/20,17:00,207,101
�n����ʂ�,3_1_3,2022/7/20,18:00,116,103
�n����ʂ�,3_1_3,2022/7/20,19:00,70,81
�n����ʂ�,3_1_3,2022/7/20,20:00,51,50
�n����ʂ�,3_1_3,2022/7/20,21:00,70,34
�n����ʂ�,3_1_3,2022/7/20,22:00,35,16
�n����ʂ�,3_1_3,2022/7/20,23:00,5,3
�n����ʂ�,3_1_3,2022/7/21,0:00,1,1
�n����ʂ�,3_1_3,2022/7/21,1:00,4,0
�n����ʂ�,3_1_3,2022/7/21,2:00,2,2
�n����ʂ�,3_1_3,2022/7/21,3:00,0,5
�n����ʂ�,3_1_3,2022/7/21,4:00,4,3
�n����ʂ�,3_1_3,2022/7/21,5:00,27,15
�n����ʂ�,3_1_3,2022/7/21,6:00,46,45
�n����ʂ�,3_1_3,2022/7/21,7:00,63,158
�n����ʂ�,3_1_3,2022/7/21,8:00,104,222
�n����ʂ�,3_1_3,2022/7/21,9:00,123,145
�n����ʂ�,3_1_3,2022/7/21,10:00,159,142
�n����ʂ�,3_1_3,2022/7/21,11:00,153,118
�n����ʂ�,3_1_3,2022/7/21,12:00,208,115
�n����ʂ�,3_1_3,2022/7/21,13:00,133,154
�n����ʂ�,3_1_3,2022/7/21,14:00,137,118
�n����ʂ�,3_1_3,2022/7/21,15:00,166,88
�n����ʂ�,3_1_3,2022/7/21,16:00,173,82
�n����ʂ�,3_1_3,2022/7/21,17:00,177,94
�n����ʂ�,3_1_3,2022/7/21,18:00,135,91
�n����ʂ�,3_1_3,2022/7/21,19:00,86,76
�n����ʂ�,3_1_3,2022/7/21,20:00,76,57
�n����ʂ�,3_1_3,2022/7/21,21:00,79,28
�n����ʂ�,3_1_3,2022/7/21,22:00,14,4
�n����ʂ�,3_1_3,2022/7/21,23:00,4,1
�n����ʂ�,3_1_3,2022/7/22,0:00,3,1
�n����ʂ�,3_1_3,2022/7/22,1:00,2,1
�n����ʂ�,3_1_3,2022/7/22,2:00,1,1
�n����ʂ�,3_1_3,2022/7/22,3:00,2,7
�n����ʂ�,3_1_3,2022/7/22,4:00,2,6
�n����ʂ�,3_1_3,2022/7/22,5:00,29,30
�n����ʂ�,3_1_3,2022/7/22,6:00,34,28
�n����ʂ�,3_1_3,2022/7/22,7:00,73,133
�n����ʂ�,3_1_3,2022/7/22,8:00,115,150
�n����ʂ�,3_1_3,2022/7/22,9:00,159,144
�n����ʂ�,3_1_3,2022/7/22,10:00,213,182
�n����ʂ�,3_1_3,2022/7/22,11:00,228,182
�n����ʂ�,3_1_3,2022/7/22,12:00,246,172
�n����ʂ�,3_1_3,2022/7/22,13:00,255,180
�n����ʂ�,3_1_3,2022/7/22,14:00,215,158
�n����ʂ�,3_1_3,2022/7/22,15:00,201,114
�n����ʂ�,3_1_3,2022/7/22,16:00,178,130
�n����ʂ�,3_1_3,2022/7/22,17:00,201,106
�n����ʂ�,3_1_3,2022/7/22,18:00,141,172
�n����ʂ�,3_1_3,2022/7/22,19:00,106,88
�n����ʂ�,3_1_3,2022/7/22,20:00,85,57
�n����ʂ�,3_1_3,2022/7/22,21:00,63,37
�n����ʂ�,3_1_3,2022/7/22,22:00,12,4
�n����ʂ�,3_1_3,2022/7/22,23:00,12,3
�n����ʂ�,3_1_3,2022/7/23,0:00,7,3
�n����ʂ�,3_1_3,2022/7/23,1:00,3,1
�n����ʂ�,3_1_3,2022/7/23,2:00,5,4
�n����ʂ�,3_1_3,2022/7/23,3:00,2,5
�n����ʂ�,3_1_3,2022/7/23,4:00,4,2
�n����ʂ�,3_1_3,2022/7/23,5:00,18,30
�n����ʂ�,3_1_3,2022/7/23,6:00,48,36
�n����ʂ�,3_1_3,2022/7/23,7:00,52,91
�n����ʂ�,3_1_3,2022/7/23,8:00,82,91
�n����ʂ�,3_1_3,2022/7/23,9:00,91,154
�n����ʂ�,3_1_3,2022/7/23,10:00,183,179
�n����ʂ�,3_1_3,2022/7/23,11:00,262,268
�n����ʂ�,3_1_3,2022/7/23,12:00,350,384
�n����ʂ�,3_1_3,2022/7/23,13:00,311,335
�n����ʂ�,3_1_3,2022/7/23,14:00,343,264
�n����ʂ�,3_1_3,2022/7/23,15:00,306,241
�n����ʂ�,3_1_3,2022/7/23,16:00,288,253
�n����ʂ�,3_1_3,2022/7/23,17:00,251,220
�n����ʂ�,3_1_3,2022/7/23,18:00,195,209
�n����ʂ�,3_1_3,2022/7/23,19:00,141,165
�n����ʂ�,3_1_3,2022/7/23,20:00,113,94
�n����ʂ�,3_1_3,2022/7/23,21:00,59,30
�n����ʂ�,3_1_3,2022/7/23,22:00,21,9
�n����ʂ�,3_1_3,2022/7/23,23:00,22,2
�n����ʂ�,3_1_3,2022/7/24,0:00,6,0
�n����ʂ�,3_1_3,2022/7/24,1:00,7,2
�n����ʂ�,3_1_3,2022/7/24,2:00,3,1
�n����ʂ�,3_1_3,2022/7/24,3:00,3,6
�n����ʂ�,3_1_3,2022/7/24,4:00,3,3
�n����ʂ�,3_1_3,2022/7/24,5:00,29,29
�n����ʂ�,3_1_3,2022/7/24,6:00,40,31
�n����ʂ�,3_1_3,2022/7/24,7:00,50,47
�n����ʂ�,3_1_3,2022/7/24,8:00,88,78
�n����ʂ�,3_1_3,2022/7/24,9:00,102,132
�n����ʂ�,3_1_3,2022/7/24,10:00,206,252
�n����ʂ�,3_1_3,2022/7/24,11:00,233,241
�n����ʂ�,3_1_3,2022/7/24,12:00,354,318
�n����ʂ�,3_1_3,2022/7/24,13:00,330,353
�n����ʂ�,3_1_3,2022/7/24,14:00,384,387
�n����ʂ�,3_1_3,2022/7/24,15:00,331,252
�n����ʂ�,3_1_3,2022/7/24,16:00,265,229
�n����ʂ�,3_1_3,2022/7/24,17:00,207,148
�n����ʂ�,3_1_3,2022/7/24,18:00,91,98
�n����ʂ�,3_1_3,2022/7/24,19:00,56,68
�n����ʂ�,3_1_3,2022/7/24,20:00,54,54
�n����ʂ�,3_1_3,2022/7/24,21:00,139,20
�n����ʂ�,3_1_3,2022/7/24,22:00,8,1
�n����ʂ�,3_1_3,2022/7/24,23:00,3,0
�n����ʂ�,3_1_3,2022/7/25,0:00,1,2
�n����ʂ�,3_1_3,2022/7/25,1:00,0,0
�n����ʂ�,3_1_3,2022/7/25,2:00,1,0
�n����ʂ�,3_1_3,2022/7/25,3:00,2,2
�n����ʂ�,3_1_3,2022/7/25,4:00,2,0
�n����ʂ�,3_1_3,2022/7/25,5:00,20,21
�n����ʂ�,3_1_3,2022/7/25,6:00,40,44
�n����ʂ�,3_1_3,2022/7/25,7:00,64,220
�n����ʂ�,3_1_3,2022/7/25,8:00,87,163
�n����ʂ�,3_1_3,2022/7/25,9:00,135,112
�n����ʂ�,3_1_3,2022/7/25,10:00,191,176
�n����ʂ�,3_1_3,2022/7/25,11:00,175,138
�n����ʂ�,3_1_3,2022/7/25,12:00,206,242
�n����ʂ�,3_1_3,2022/7/25,13:00,200,226
�n����ʂ�,3_1_3,2022/7/25,14:00,200,183
�n����ʂ�,3_1_3,2022/7/25,15:00,168,101
�n����ʂ�,3_1_3,2022/7/25,16:00,177,113
�n����ʂ�,3_1_3,2022/7/25,17:00,236,94
�n����ʂ�,3_1_3,2022/7/25,18:00,118,117
�n����ʂ�,3_1_3,2022/7/25,19:00,83,77
�n����ʂ�,3_1_3,2022/7/25,20:00,143,61
�n����ʂ�,3_1_3,2022/7/25,21:00,60,20
�n����ʂ�,3_1_3,2022/7/25,22:00,10,1
�n����ʂ�,3_1_3,2022/7/25,23:00,5,3
�n����ʂ�,3_1_3,2022/7/26,0:00,3,0
�n����ʂ�,3_1_3,2022/7/26,1:00,1,1
�n����ʂ�,3_1_3,2022/7/26,2:00,2,2
�n����ʂ�,3_1_3,2022/7/26,3:00,3,6
�n����ʂ�,3_1_3,2022/7/26,4:00,2,4
�n����ʂ�,3_1_3,2022/7/26,5:00,27,33
�n����ʂ�,3_1_3,2022/7/26,6:00,34,58
�n����ʂ�,3_1_3,2022/7/26,7:00,66,304
�n����ʂ�,3_1_3,2022/7/26,8:00,120,174
�n����ʂ�,3_1_3,2022/7/26,9:00,131,155
�n����ʂ�,3_1_3,2022/7/26,10:00,159,164
�n����ʂ�,3_1_3,2022/7/26,11:00,222,157
�n����ʂ�,3_1_3,2022/7/26,12:00,201,187
�n����ʂ�,3_1_3,2022/7/26,13:00,190,184
�n����ʂ�,3_1_3,2022/7/26,14:00,166,157
�n����ʂ�,3_1_3,2022/7/26,15:00,217,117
�n����ʂ�,3_1_3,2022/7/26,16:00,223,117
�n����ʂ�,3_1_3,2022/7/26,17:00,210,94
�n����ʂ�,3_1_3,2022/7/26,18:00,148,103
�n����ʂ�,3_1_3,2022/7/26,19:00,68,79
�n����ʂ�,3_1_3,2022/7/26,20:00,55,62
�n����ʂ�,3_1_3,2022/7/26,21:00,62,41
�n����ʂ�,3_1_3,2022/7/26,22:00,23,13
�n����ʂ�,3_1_3,2022/7/26,23:00,3,0
�n����ʂ�,3_1_3,2022/7/27,0:00,4,1
�n����ʂ�,3_1_3,2022/7/27,1:00,1,2
�n����ʂ�,3_1_3,2022/7/27,2:00,4,1
�n����ʂ�,3_1_3,2022/7/27,3:00,2,5
�n����ʂ�,3_1_3,2022/7/27,4:00,5,3
�n����ʂ�,3_1_3,2022/7/27,5:00,30,18
�n����ʂ�,3_1_3,2022/7/27,6:00,33,48
�n����ʂ�,3_1_3,2022/7/27,7:00,68,235
�n����ʂ�,3_1_3,2022/7/27,8:00,95,153
�n����ʂ�,3_1_3,2022/7/27,9:00,151,113
�n����ʂ�,3_1_3,2022/7/27,10:00,140,159
�n����ʂ�,3_1_3,2022/7/27,11:00,157,145
�n����ʂ�,3_1_3,2022/7/27,12:00,202,199
�n����ʂ�,3_1_3,2022/7/27,13:00,241,224